Location: Chamerau
(49.1969°N, 12.7525°E)
Time: 09:31:40
(UTC+00:00)

Cosmos 2227 - Pass Details

Date: 18 September 2020
Orbit: 836 x 859 km, 71.0° (Epoch: 27 October)

Event Time Altitude Azimuth Distance (km) Brightness Sun altitude
Rises 17:57:51 0° 201° (SSW) 3,420 7.5 -7.8°
Reaches altitude 10° 18:00:18 10° 200° (SSW) 2,486 6.8 -8.2°
Maximum altitude 18:06:01 77° 116° (ESE) 881 4.2 -9.1°
Drops below altitude 10° 18:11:44 10° 31° (NNE) 2,489 6.5 -10.0°
Sets 18:14:11 0° 30° (NNE) 3,425 7.2 -10.4°
